Regional Weather Roundup
Issued by NWS Albany, NY

Home | Current Version | Previous Version | Text Only | Print | Product List | Glossary On
Versions: 1 2 3 4 5 6 7 8 9 10 11 12 13 14 15 16 17 18 19 20 21 22 23 24 25 26 27 28 29 30 31 32 33 34 35 36 37 38 39 40 41 42 43 44 45 46 47 48 49 50
000
ASUS41 KALY 020210
RWRALY

NEW YORK STATE HOURLY WEATHER ROUNDUP
NATIONAL WEATHER SERVICE ALBANY NY
1000 PM EDT TUE SEP 01 2015

NOTE: "FAIR" INDICATES FEW OR NO CLOUDS BELOW 12,000 FEET WITH NO
SIGNIFICANT WEATHER AND/OR NO OBSTRUCTIONS TO VISIBILITY.

NYZ032-033-038>043-046>054-057>066-NYZ062>081-020300-
EAST


CITY           SKY/WX    TMP DP  RH WIND       PRES   REMARKS
ALBANY         CLEAR     73  64  73 CALM      30.04R
GLENS FALLS    CLEAR     68  63  84 CALM      30.03R
POUGHKEEPSIE   CLEAR     69  63  81 CALM      30.04R
NEWBURGH       CLEAR     72  64  78 CALM      30.06S
MONTGOMERY     CLEAR     67  64  90 CALM      30.05S
WHITE PLAINS   CLEAR     72  64  76 CALM      30.06S
ISLIP          CLEAR     73  67  81 CALM      30.04S
NEW YORK CITY  PTCLDY    77  67  71 S5        30.04S
CENTRAL PARK   CLEAR     78  63  59 S3        30.07S
$$

NYZ005>009-017-018-044>046-055-056-020300-
CENTRAL


CITY           SKY/WX    TMP DP  RH WIND       PRES   REMARKS
FULTON         CLEAR     68  65  90 CALM      30.05S FOG
SYRACUSE       CLEAR     70  68  93 E3        30.04S
ROME           CLEAR     65  64  97 CALM      30.07S
ELMIRA         CLEAR     67  65  93 CALM      30.08R
BINGHAMTON     CLEAR     72  64  76 CALM      30.11R
MONTICELLO     CLEAR     66  64  94 CALM      30.12S
$$

NYZ026>034-041>043-020300-
NORTH


CITY           SKY/WX    TMP DP  RH WIND       PRES   REMARKS
WATERTOWN      PTCLDY    62  61  96 CALM      30.03F FOG
FORT DRUM      NOT AVBL
MASSENA        CLEAR     68  65  90 SW5       30.02S
SARANAC LAKE   CLEAR     63  61  93 CALM      30.08S
PLATTSBURGH    CLEAR     64  62  93 CALM      30.01S
$$

NYZ001>004-010>016-019>021-020300-
WEST


CITY           SKY/WX    TMP DP  RH WIND       PRES   REMARKS
NIAGARA FALLS  CLEAR     71  69  93 S7        30.05S FOG
BUFFALO        CLEAR     73  69  87 SW8       30.07R FOG
DUNKIRK        CLEAR     68  66  93 S5        30.08R
JAMESTOWN      CLEAR     66  63  88 W5        30.13S
WELLSVILLE     CLEAR     69  62  78 NW3       30.16R
ROCHESTER      CLEAR     70  66  87 SW3       30.06S
PENN YAN       CLEAR     68  65  90 SW5       30.09R
$$

             KEY
       WCI = WIND CHILL INDEX
       VSB = VISIBILITY
       HX  = HEAT INDEX
$$



USA.gov is the U.S. government's official web portal to all federal, state and local government web resources and services.